| time (UTC) | temp F | wind direction | speed MPH | gust MPH | rain 1hr in | rain 24hr in | rain mn in | humidity % | barometer mb |
| 20260903065404 | 94 | 0 | 3.0 | 6.0 | 0.00 | 0.00 | 0.00 | 37 | 1010.1 |
| 20260903063905 | 94 | 65 | 4.0 | 9.0 | 0.00 | 0.00 | 0.00 | 37 | 1010.2 |
| 20260903063406 | 94 | 81 | 6.0 | 12.0 | 0.00 | 0.00 | 0.00 | 37 | 1010.2 |
| 20260903062904 | 94 | 36 | 6.0 | 13.0 | 0.00 | 0.00 | 0.00 | 37 | 1010.2 |
| 20260903062404 | 94 | 55 | 6.0 | 10.0 | 0.00 | 0.00 | 0.00 | 37 | 1010.0 |
| 20260903061904 | 94 | 48 | 6.0 | 12.0 | 0.00 | 0.00 | 0.00 | 37 | 1009.9 |
| 20260903061404 | 94 | 45 | 6.0 | 12.0 | 0.00 | 0.00 | 0.00 | 37 | 1009.9 |
| 20260903060904 | 94 | 43 | 6.0 | 10.0 | 0.00 | 0.00 | 0.00 | 37 | 1010.0 |
| 20260903060404 | 94 | 49 | 3.0 | 8.0 | 0.00 | 0.00 | 0.00 | 37 | 1010.1 |
| 20260903055404 | 94 | 15 | 5.0 | 9.0 | 0.00 | 0.00 | 0.00 | 37 | 1010.2 |
| 20260903054904 | 94 | 50 | 5.0 | 12.0 | 0.00 | 0.00 | 0.00 | 37 | 1010.3 |
| 20260903054405 | 94 | 51 | 4.0 | 10.0 | 0.00 | 0.00 | 0.00 | 37 | 1010.4 |
| 20260903053905 | 94 | 46 | 5.0 | 10.0 | 0.00 | 0.00 | 0.00 | 37 | 1010.4 |
| 20260903052905 | 94 | 40 | 5.0 | 12.0 | 0.00 | 0.00 | 0.00 | 37 | 1010.5 |
| 20260903052404 | 94 | 52 | 6.0 | 12.0 | 0.00 | 0.00 | 0.00 | 37 | 1010.6 |
| 20260903051905 | 94 | 51 | 5.0 | 9.0 | 0.00 | 0.00 | 0.00 | 37 | 1010.7 |
| 20260903050904 | 94 | 51 | 5.0 | 17.0 | 0.00 | 0.00 | 0.00 | 37 | 1010.8 |
| 20260903045904 | 94 | 52 | 5.0 | 12.0 | 0.00 | 0.00 | 0.00 | 37 | 1010.9 |
| 20260903045404 | 94 | 41 | 9.0 | 16.0 | 0.00 | 0.00 | 0.00 | 37 | 1010.9 |
| 20260903044904 | 94 | 49 | 7.0 | 17.0 | 0.00 | 0.00 | 0.00 | 37 | 1010.9 |
| 20260903044404 | 94 | 47 | 12.0 | 20.0 | 0.00 | 0.00 | 0.00 | 37 | 1010.9 |
| 20260903043904 | 94 | 38 | 6.0 | 12.0 | 0.00 | 0.00 | 0.00 | 37 | 1010.8 |
| 20260903042905 | 94 | 46 | 5.0 | 13.0 | 0.00 | 0.00 | 0.00 | 37 | 1010.8 |
| 20260903042405 | 94 | 43 | 5.0 | 13.0 | 0.00 | 0.00 | 0.00 | 37 | 1010.8 |
| 20260903041904 | 94 | 43 | 5.0 | 12.0 | 0.00 | 0.00 | 0.00 | 37 | 1010.8 |
| 20260903041404 | 94 | 43 | 5.0 | 13.0 | 0.00 | 0.00 | 0.00 | 37 | 1010.9 |
| 20260903040904 | 94 | 43 | 7.0 | 14.0 | 0.00 | 0.00 | 0.00 | 37 | 1010.8 |
| 20260903040404 | 94 | 41 | 6.0 | 15.0 | 0.00 | 0.00 | 0.00 | 37 | 1011.0 |
| 20260903035905 | 94 | 45 | 10.0 | 16.0 | 0.00 | 0.00 | 0.00 | 37 | 1011.1 |
| 20260903035405 | 94 | 45 | 6.0 | 15.0 | 0.00 | 0.00 | 0.00 | 37 | 1011.0 |
| 20260903034904 | 94 | 46 | 6.0 | 15.0 | 0.00 | 0.00 | 0.00 | 37 | 1011.0 |
| 20260903034404 | 94 | 49 | 5.0 | 15.0 | 0.00 | 0.00 | 0.00 | 37 | 1010.9 |
| 20260903033904 | 94 | 48 | 7.0 | 13.0 | 0.00 | 0.00 | 0.00 | 37 | 1010.9 |
| 20260903033405 | 94 | 58 | 5.0 | 12.0 | 0.00 | 0.00 | 0.00 | 37 | 1010.9 |
| 20260903032904 | 94 | 50 | 7.0 | 12.0 | 0.00 | 0.00 | 0.00 | 37 | 1010.8 |
| 20260903032404 | 94 | 64 | 3.0 | 9.0 | 0.00 | 0.00 | 0.00 | 37 | 1010.8 |
| 20260903031405 | 94 | 56 | 4.0 | 9.0 | 0.00 | 0.00 | 0.00 | 37 | 1010.9 |
| 20260903030404 | 94 | 59 | 3.0 | 6.0 | 0.00 | 0.00 | 0.00 | 37 | 1010.8 |
| 20260903025904 | 94 | 68 | 4.0 | 10.0 | 0.00 | 0.00 | 0.00 | 37 | 1010.8 |
| 20260903025405 | 94 | 63 | 5.0 | 10.0 | 0.00 | 0.00 | 0.00 | 37 | 1010.8 |
| 20260903024405 | 94 | 63 | 7.0 | 13.0 | 0.00 | 0.00 | 0.00 | 37 | 1010.7 |
| 20260903023905 | 94 | 59 | 7.0 | 15.0 | 0.00 | 0.00 | 0.00 | 37 | 1010.7 |
| 20260903023404 | 94 | 59 | 7.0 | 14.0 | 0.00 | 0.00 | 0.00 | 37 | 1010.7 |
| 20260903022905 | 94 | 61 | 6.0 | 13.0 | 0.00 | 0.00 | 0.00 | 37 | 1010.7 |
| 20260903022405 | 94 | 71 | 6.0 | 15.0 | 0.00 | 0.00 | 0.00 | 37 | 1010.6 |
| 20260903021904 | 94 | 79 | 7.0 | 15.0 | 0.00 | 0.00 | 0.00 | 37 | 1010.6 |
| 20260903020905 | 94 | 70 | 7.0 | 15.0 | 0.00 | 0.00 | 0.00 | 37 | 1010.5 |
| 20260903015905 | 94 | 67 | 5.0 | 12.0 | 0.00 | 0.00 | 0.00 | 37 | 1010.3 |
| 20260903015405 | 94 | 56 | 6.0 | 16.0 | 0.00 | 0.00 | 0.00 | 37 | 1010.3 |
| 20260903014905 | 94 | 69 | 5.0 | 12.0 | 0.00 | 0.00 | 0.00 | 37 | 1010.2 |
| 20260903014405 | 94 | 74 | 5.0 | 16.0 | 0.00 | 0.00 | 0.00 | 37 | 1010.1 |
| 20260903013404 | 94 | 55 | 5.0 | 12.0 | 0.00 | 0.00 | 0.00 | 37 | 1009.9 |
| 20260903012904 | 94 | 89 | 7.0 | 15.0 | 0.00 | 0.00 | 0.00 | 37 | 1009.8 |
| 20260903012404 | 94 | 59 | 7.0 | 14.0 | 0.00 | 0.00 | 0.00 | 37 | 1009.7 |
| 20260903011404 | 94 | 75 | 5.0 | 12.0 | 0.00 | 0.00 | 0.00 | 37 | 1009.5 |
| 20260903010405 | 94 | 59 | 6.0 | 12.0 | 0.00 | 0.00 | 0.00 | 37 | 1009.4 |
| 20260903005904 | 94 | 71 | 5.0 | 12.0 | 0.00 | 0.00 | 0.00 | 37 | 1009.4 |
| 20260903005404 | 94 | 76 | 7.0 | 15.0 | 0.00 | 0.00 | 0.00 | 37 | 1009.4 |
| 20260903004904 | 94 | 82 | 6.0 | 12.0 | 0.00 | 0.00 | 0.00 | 37 | 1009.3 |
| 20260903004404 | 94 | 57 | 5.0 | 12.0 | 0.00 | 0.00 | 0.00 | 37 | 1009.3 |
| 20260903003905 | 94 | 58 | 6.0 | 12.0 | 0.00 | 0.00 | 0.00 | 37 | 1009.2 |
| 20260903003404 | 94 | 51 | 7.0 | 12.0 | 0.00 | 0.00 | 0.00 | 37 | 1009.2 |
| 20260903002904 | 94 | 56 | 7.0 | 15.0 | 0.00 | 0.00 | 0.00 | 37 | 1009.0 |
| 20260903002404 | 94 | 66 | 7.0 | 15.0 | 0.00 | 0.00 | 0.00 | 37 | 1009.0 |
| 20260903001404 | 94 | 43 | 5.0 | 12.0 | 0.00 | 0.00 | 0.00 | 37 | 1009.0 |
| 20260902235904 | 94 | 48 | 7.0 | 13.0 | 0.00 | 0.00 | 0.00 | 37 | 1008.9 |
| 20260902235405 | 94 | 37 | 7.0 | 14.0 | 0.00 | 0.00 | 0.00 | 37 | 1008.8 |
| 20260902234904 | 94 | 54 | 8.0 | 17.0 | 0.00 | 0.00 | 0.00 | 37 | 1008.8 |
| 20260902234404 | 94 | 45 | 7.0 | 15.0 | 0.00 | 0.00 | 0.00 | 37 | 1008.8 |
| 20260902233904 | 94 | 53 | 7.0 | 15.0 | 0.00 | 0.00 | 0.00 | 37 | 1008.7 |
| 20260902233404 | 94 | 54 | 9.0 | 16.0 | 0.00 | 0.00 | 0.00 | 37 | 1008.6 |
| 20260902232404 | 95 | 54 | 5.0 | 16.0 | 0.00 | 0.00 | 0.00 | 37 | 1008.6 |
| 20260902231904 | 95 | 33 | 8.0 | 12.0 | 0.00 | 0.00 | 0.00 | 36 | 1008.6 |
| 20260902231404 | 95 | 68 | 5.0 | 13.0 | 0.00 | 0.00 | 0.00 | 36 | 1008.7 |
| 20260902230904 | 95 | 41 | 7.0 | 15.0 | 0.00 | 0.00 | 0.00 | 36 | 1008.6 |
| 20260902230404 | 95 | 53 | 9.0 | 13.0 | 0.00 | 0.00 | 0.00 | 36 | 1008.6 |
| 20260902225404 | 96 | 45 | 9.0 | 15.0 | 0.00 | 0.00 | 0.00 | 35 | 1008.6 |
| 20260902224904 | 97 | 57 | 7.0 | 16.0 | 0.00 | 0.00 | 0.00 | 35 | 1008.6 |
| 20260902223905 | 97 | 28 | 10.0 | 16.0 | 0.00 | 0.00 | 0.00 | 34 | 1008.4 |
| 20260902223404 | 97 | 43 | 9.0 | 17.0 | 0.00 | 0.00 | 0.00 | 34 | 1008.5 |
| 20260902222904 | 98 | 32 | 6.0 | 15.0 | 0.00 | 0.00 | 0.00 | 34 | 1008.5 |
| 20260902221905 | 98 | 40 | 7.0 | 15.0 | 0.00 | 0.00 | 0.00 | 34 | 1008.4 |
| 20260902221404 | 99 | 38 | 10.0 | 17.0 | 0.00 | 0.00 | 0.00 | 34 | 1008.4 |
| 20260902220906 | 98 | 41 | 8.0 | 16.0 | 0.00 | 0.00 | 0.00 | 35 | 1008.5 |
| 20260902220404 | 98 | 52 | 6.0 | 10.0 | 0.00 | 0.00 | 0.00 | 35 | 1008.4 |
| 20260902215905 | 98 | 44 | 8.0 | 14.0 | 0.00 | 0.00 | 0.00 | 34 | 1008.5 |
| 20260902215404 | 98 | 51 | 6.0 | 12.0 | 0.00 | 0.00 | 0.00 | 33 | 1008.5 |
| 20260902214905 | 99 | 42 | 7.0 | 16.0 | 0.00 | 0.00 | 0.00 | 33 | 1008.6 |
| 20260902214404 | 100 | 46 | 9.0 | 18.0 | 0.00 | 0.00 | 0.00 | 32 | 1008.6 |
| 20260902213904 | 99 | 58 | 6.0 | 12.0 | 0.00 | 0.00 | 0.00 | 33 | 1008.6 |
| 20260902213404 | 99 | 64 | 5.0 | 10.0 | 0.00 | 0.00 | 0.00 | 32 | 1008.6 |
| 20260902212904 | 99 | 50 | 5.0 | 14.0 | 0.00 | 0.00 | 0.00 | 33 | 1008.8 |
| 20260902212404 | 99 | 2 | 8.0 | 15.0 | 0.00 | 0.00 | 0.00 | 31 | 1008.9 |
| 20260902210905 | 99 | 49 | 4.0 | 12.0 | 0.00 | 0.00 | 0.00 | 31 | 1008.9 |
| 20260902210404 | 99 | 7 | 8.0 | 13.0 | 0.00 | 0.00 | 0.00 | 32 | 1009.0 |
| 20260902205905 | 99 | 34 | 6.0 | 12.0 | 0.00 | 0.00 | 0.00 | 32 | 1009.1 |
| 20260902205405 | 99 | 43 | 8.0 | 14.0 | 0.00 | 0.00 | 0.00 | 33 | 1009.1 |
| 20260902204904 | 99 | 34 | 5.0 | 9.0 | 0.00 | 0.00 | 0.00 | 34 | 1009.0 |
| 20260902204404 | 99 | 33 | 6.0 | 10.0 | 0.00 | 0.00 | 0.00 | 32 | 1009.2 |
| 20260902203905 | 99 | 25 | 6.0 | 13.0 | 0.00 | 0.00 | 0.00 | 33 | 1009.3 |
| 20260902203404 | 99 | 12 | 5.0 | 12.0 | 0.00 | 0.00 | 0.00 | 34 | 1009.2 |
| 20260902202905 | 99 | 38 | 9.0 | 13.0 | 0.00 | 0.00 | 0.00 | 31 | 1009.3 |
| 20260902202404 | 99 | 20 | 6.0 | 12.0 | 0.00 | 0.00 | 0.00 | 34 | 1009.5 |
| 20260902201904 | 99 | 337 | 7.0 | 13.0 | 0.00 | 0.00 | 0.00 | 33 | 1009.6 |
| 20260902201404 | 99 | 0 | 3.0 | 15.0 | 0.00 | 0.00 | 0.00 | 33 | 1009.5 |
| 20260902200906 | 99 | 26 | 9.0 | 20.0 | 0.00 | 0.00 | 0.00 | 33 | 1009.6 |
| 20260902200405 | 99 | 56 | 3.0 | 12.0 | 0.00 | 0.00 | 0.00 | 32 | 1009.8 |
| 20260902194904 | 99 | 43 | 7.0 | 14.0 | 0.00 | 0.00 | 0.00 | 33 | 1010.1 |
| 20260902194404 | 99 | 22 | 10.0 | 15.0 | 0.00 | 0.00 | 0.00 | 32 | 1010.2 |
| 20260902193905 | 99 | 70 | 5.0 | 12.0 | 0.00 | 0.00 | 0.00 | 33 | 1010.3 |
| 20260902193404 | 99 | 37 | 2.0 | 9.0 | 0.00 | 0.00 | 0.00 | 32 | 1010.3 |
| 20260902192904 | 99 | 10 | 5.0 | 15.0 | 0.00 | 0.00 | 0.00 | 33 | 1010.3 |
| 20260902192404 | 99 | 19 | 9.0 | 15.0 | 0.00 | 0.00 | 0.00 | 34 | 1010.4 |
| 20260902191404 | 99 | 14 | 6.0 | 15.0 | 0.00 | 0.00 | 0.00 | 33 | 1010.6 |
| 20260902190905 | 99 | 18 | 7.0 | 14.0 | 0.00 | 0.00 | 0.00 | 34 | 1010.6 |
| 20260902190404 | 99 | 310 | 4.0 | 8.0 | 0.00 | 0.00 | 0.00 | 34 | 1010.6 |
| 20260902185903 | 99 | 7 | 6.0 | 12.0 | 0.00 | 0.00 | 0.00 | 35 | 1010.9 |
| 20260902185404 | 99 | 344 | 4.0 | 12.0 | 0.00 | 0.00 | 0.00 | 35 | 1010.9 |
| 20260902184904 | 99 | 342 | 3.0 | 10.0 | 0.00 | 0.00 | 0.00 | 35 | 1011.0 |
| 20260902184404 | 98 | 2 | 5.0 | 12.0 | 0.00 | 0.00 | 0.00 | 36 | 1010.9 |
| 20260902183904 | 98 | 73 | 3.0 | 10.0 | 0.00 | 0.00 | 0.00 | 35 | 1011.1 |
| 20260902183404 | 98 | 68 | 3.0 | 12.0 | 0.00 | 0.00 | 0.00 | 33 | 1011.2 |
| 20260902182905 | 97 | 63 | 8.0 | 13.0 | 0.00 | 0.00 | 0.00 | 34 | 1011.3 |
| 20260902181904 | 97 | 356 | 5.0 | 12.0 | 0.00 | 0.00 | 0.00 | 34 | 1011.5 |
| 20260902181406 | 97 | 29 | 6.0 | 12.0 | 0.00 | 0.00 | 0.00 | 34 | 1011.7 |
| 20260902180904 | 97 | 9 | 3.0 | 9.0 | 0.00 | 0.00 | 0.00 | 36 | 1011.8 |
| 20260902180404 | 97 | 359 | 4.0 | 12.0 | 0.00 | 0.00 | 0.00 | 36 | 1011.9 |
| 20260902175904 | 97 | 339 | 5.0 | 10.0 | 0.00 | 0.00 | 0.00 | 36 | 1012.0 |
| 20260902175404 | 97 | 13 | 9.0 | 16.0 | 0.00 | 0.00 | 0.00 | 36 | 1012.2 |
| 20260902174904 | 96 | 28 | 5.0 | 12.0 | 0.00 | 0.00 | 0.00 | 36 | 1012.3 |
| 20260902174404 | 96 | 17 | 6.0 | 13.0 | 0.00 | 0.00 | 0.00 | 37 | 1012.4 |
| 20260902173405 | 96 | 76 | 3.0 | 10.0 | 0.00 | 0.00 | 0.00 | 38 | 1012.4 |
| 20260902172904 | 96 | 33 | 6.0 | 13.0 | 0.00 | 0.00 | 0.00 | 38 | 1012.6 |
| 20260902172404 | 95 | 19 | 5.0 | 10.0 | 0.00 | 0.00 | 0.00 | 40 | 1012.7 |
| 20260902171905 | 95 | 27 | 3.0 | 7.0 | 0.00 | 0.00 | 0.00 | 39 | 1012.7 |
| 20260902170904 | 95 | 25 | 7.0 | 12.0 | 0.00 | 0.00 | 0.00 | 42 | 1012.9 |
| 20260902165904 | 94 | 84 | 3.0 | 10.0 | 0.00 | 0.00 | 0.00 | 43 | 1013.1 |
| 20260902164905 | 93 | 64 | 2.0 | 12.0 | 0.00 | 0.00 | 0.00 | 43 | 1013.2 |
| 20260902163904 | 92 | 51 | 4.0 | 7.0 | 0.00 | 0.00 | 0.00 | 45 | 1013.3 |
| 20260902162403 | 92 | 30 | 6.0 | 10.0 | 0.00 | 0.00 | 0.00 | 46 | 1013.5 |
| 20260902161904 | 92 | 24 | 4.0 | 9.0 | 0.00 | 0.00 | 0.00 | 46 | 1013.5 |
| 20260902161404 | 92 | 27 | 3.0 | 10.0 | 0.00 | 0.00 | 0.00 | 48 | 1013.5 |
| 20260902160904 | 91 | 347 | 2.0 | 9.0 | 0.00 | 0.00 | 0.00 | 47 | 1013.5 |
| 20260902160404 | 91 | 325 | 1.0 | 8.0 | 0.00 | 0.00 | 0.00 | 49 | 1013.6 |
| 20260902155905 | 91 | 15 | 5.0 | 10.0 | 0.00 | 0.00 | 0.00 | 48 | 1013.6 |
| 20260902155404 | 91 | 323 | 2.0 | 3.0 | 0.00 | 0.00 | 0.00 | 48 | 1013.6 |
| 20260902154904 | 91 | 83 | 1.0 | 5.0 | 0.00 | 0.00 | 0.00 | 48 | 1013.6 |
| 20260902154404 | 90 | 23 | 4.0 | 6.0 | 0.00 | 0.00 | 0.00 | 49 | 1013.6 |
| 20260902153904 | 90 | 54 | 3.0 | 6.0 | 0.00 | 0.00 | 0.00 | 51 | 1013.6 |
| 20260902153404 | 90 | 87 | 1.0 | 3.0 | 0.00 | 0.00 | 0.00 | 50 | 1013.6 |
| 20260902152904 | 89 | 79 | 2.0 | 6.0 | 0.00 | 0.00 | 0.00 | 50 | 1013.6 |
| 20260902152405 | 89 | 44 | 3.0 | 9.0 | 0.00 | 0.00 | 0.00 | 51 | 1013.6 |
| 20260902151904 | 89 | 65 | 2.0 | 5.0 | 0.00 | 0.00 | 0.00 | 52 | 1013.4 |
| 20260902151403 | 89 | 25 | 4.0 | 6.0 | 0.00 | 0.00 | 0.00 | 52 | 1013.5 |
| 20260902150904 | 88 | 57 | 3.0 | 7.0 | 0.00 | 0.00 | 0.00 | 53 | 1013.6 |
| 20260902150404 | 88 | 43 | 5.0 | 9.0 | 0.00 | 0.00 | 0.00 | 53 | 1013.5 |
| 20260902145404 | 87 | 44 | 4.0 | 8.0 | 0.00 | 0.00 | 0.00 | 55 | 1013.4 |
| 20260902144904 | 87 | 44 | 3.0 | 8.0 | 0.00 | 0.00 | 0.00 | 55 | 1013.5 |
| 20260902144404 | 87 | 28 | 3.0 | 6.0 | 0.00 | 0.00 | 0.00 | 56 | 1013.5 |
| 20260902143404 | 86 | 48 | 2.0 | 3.0 | 0.00 | 0.00 | 0.00 | 56 | 1013.5 |
| 20260902142904 | 85 | 47 | 3.0 | 8.0 | 0.00 | 0.00 | 0.00 | 57 | 1013.5 |
| 20260902142405 | 85 | 89 | 3.0 | 7.0 | 0.00 | 0.00 | 0.00 | 57 | 1013.4 |
| 20260902141904 | 85 | 86 | 3.0 | 5.0 | 0.00 | 0.00 | 0.00 | 58 | 1013.4 |
| 20260902141404 | 85 | 50 | 5.0 | 9.0 | 0.00 | 0.00 | 0.00 | 58 | 1013.4 |
| 20260902140904 | 84 | 47 | 2.0 | 8.0 | 0.00 | 0.00 | 0.00 | 58 | 1013.4 |
| 20260902140404 | 84 | 51 | 4.0 | 7.0 | 0.00 | 0.00 | 0.00 | 59 | 1013.4 |
| 20260902135404 | 83 | 82 | 3.0 | 6.0 | 0.00 | 0.00 | 0.00 | 60 | 1013.3 |
| 20260902134904 | 82 | 55 | 5.0 | 9.0 | 0.00 | 0.00 | 0.00 | 60 | 1013.3 |
| 20260902134404 | 82 | 58 | 4.0 | 6.0 | 0.00 | 0.00 | 0.00 | 61 | 1013.3 |
| 20260902133904 | 81 | 54 | 3.0 | 7.0 | 0.00 | 0.00 | 0.00 | 62 | 1013.2 |
| 20260902133404 | 81 | 61 | 3.0 | 8.0 | 0.00 | 0.00 | 0.00 | 61 | 1013.2 |
| 20260902132903 | 80 | 52 | 3.0 | 5.0 | 0.00 | 0.00 | 0.00 | 62 | 1013.3 |
| 20260902132403 | 80 | 63 | 2.0 | 3.0 | 0.00 | 0.00 | 0.00 | 62 | 1013.2 |
| 20260902131405 | 97 | 55 | 3.0 | 5.0 | 0.00 | 0.00 | 0.00 | 34 | 1013.3 |
| 20260902130403 | 97 | 100 | 2.0 | 6.0 | 0.00 | 0.00 | 0.00 | 34 | 1013.3 |
| 20260902125404 | 97 | 106 | 0.0 | 2.0 | 0.00 | 0.00 | 0.00 | 34 | 1013.4 |
| 20260902124904 | 97 | 106 | 1.0 | 3.0 | 0.00 | 0.00 | 0.00 | 34 | 1013.3 |
| 20260902124404 | 97 | 106 | 1.0 | 3.0 | 0.00 | 0.00 | 0.00 | 34 | 1013.3 |
| 20260902123904 | 97 | 107 | 0.0 | 2.0 | 0.00 | 0.00 | 0.00 | 34 | 1013.3 |
| 20260902123404 | 97 | 107 | 1.0 | 3.0 | 0.00 | 0.00 | 0.00 | 34 | 1013.2 |
| 20260902122904 | 97 | 107 | 1.0 | 3.0 | 0.00 | 0.00 | 0.00 | 34 | 1013.1 |
| 20260902122404 | 97 | 10 | 2.0 | 3.0 | 0.00 | 0.00 | 0.00 | 34 | 1013.0 |
| 20260902121904 | 97 | 0 | 1.0 | 3.0 | 0.00 | 0.00 | 0.00 | 34 | 1013.1 |
| 20260902121404 | 97 | 4 | 1.0 | 3.0 | 0.00 | 0.00 | 0.00 | 34 | 1013.0 |
| 20260902120904 | 97 | 0 | 1.0 | 2.0 | 0.00 | 0.00 | 0.00 | 34 | 1013.1 |
| 20260902120404 | 97 | 0 | 1.0 | 2.0 | 0.00 | 0.00 | 0.00 | 34 | 1013.1 |
| 20260902115904 | 97 | 0 | 1.0 | 2.0 | 0.00 | 0.00 | 0.00 | 34 | 1013.1 |
| 20260902114904 | 97 | 0 | 0.0 | 0.0 | 0.00 | 0.00 | 0.00 | 34 | 1012.9 |
| 20260902114404 | 97 | 0 | 0.0 | 0.0 | 0.00 | 0.00 | 0.00 | 34 | 1012.9 |
| 20260902113904 | 97 | 0 | 0.0 | 0.0 | 0.00 | 0.00 | 0.00 | 34 | 1012.9 |
| 20260902113404 | 97 | 0 | 0.0 | 0.0 | 0.00 | 0.00 | 0.00 | 34 | 1013.0 |
| 20260902112904 | 97 | 0 | 0.0 | 0.0 | 0.00 | 0.00 | 0.00 | 34 | 1013.0 |
| 20260902112404 | 97 | 0 | 0.0 | 1.0 | 0.00 | 0.00 | 0.00 | 34 | 1013.0 |
| 20260902111904 | 97 | 0 | 0.0 | 2.0 | 0.00 | 0.00 | 0.00 | 34 | 1012.9 |
| 20260902111404 | 97 | 0 | 1.0 | 3.0 | 0.00 | 0.00 | 0.00 | 34 | 1013.0 |
| 20260902110904 | 97 | 0 | 0.0 | 2.0 | 0.00 | 0.00 | 0.00 | 34 | 1013.0 |
| 20260902110404 | 97 | 2 | 0.0 | 0.0 | 0.00 | 0.00 | 0.00 | 34 | 1013.0 |
| 20260902105904 | 97 | 0 | 0.0 | 0.0 | 0.00 | 0.00 | 0.00 | 34 | 1013.0 |
| 20260902105404 | 97 | 0 | 0.0 | 0.0 | 0.00 | 0.00 | 0.00 | 34 | 1013.0 |
| 20260902104904 | 97 | 0 | 0.0 | 2.0 | 0.00 | 0.00 | 0.00 | 34 | 1012.9 |
| 20260902102904 | 97 | 0 | 0.0 | 0.0 | 0.00 | 0.00 | 0.00 | 34 | 1012.9 |
| 20260902102404 | 97 | 0 | 0.0 | 0.0 | 0.00 | 0.00 | 0.00 | 34 | 1012.9 |
| 20260902101904 | 97 | 0 | 0.0 | 0.0 | 0.00 | 0.00 | 0.00 | 34 | 1012.8 |
| 20260902101404 | 97 | 0 | 0.0 | 0.0 | 0.00 | 0.00 | 0.00 | 34 | 1012.9 |
| 20260902100904 | 97 | 0 | 0.0 | 1.0 | 0.00 | 0.00 | 0.00 | 34 | 1012.8 |
| 20260902100404 | 97 | 0 | 0.0 | 0.0 | 0.00 | 0.00 | 0.00 | 34 | 1012.9 |
| 20260902095904 | 97 | 0 | 0.0 | 1.0 | 0.00 | 0.00 | 0.00 | 34 | 1012.9 |
| 20260902095404 | 97 | 4 | 0.0 | 1.0 | 0.00 | 0.00 | 0.00 | 34 | 1012.8 |
| 20260902094904 | 97 | 0 | 0.0 | 0.0 | 0.00 | 0.00 | 0.00 | 34 | 1012.8 |
| 20260902094404 | 97 | 0 | 0.0 | 0.0 | 0.00 | 0.00 | 0.00 | 34 | 1012.7 |
| 20260902093905 | 97 | 0 | 0.0 | 0.0 | 0.00 | 0.00 | 0.00 | 34 | 1012.7 |
| 20260902093404 | 97 | 0 | 0.0 | 0.0 | 0.00 | 0.00 | 0.00 | 34 | 1012.6 |
| 20260902092403 | 97 | 119 | 0.0 | 0.0 | 0.00 | 0.00 | 0.00 | 34 | 1012.7 |
| 20260902091904 | 97 | 119 | 0.0 | 0.0 | 0.00 | 0.00 | 0.00 | 34 | 1012.7 |
| 20260902091404 | 97 | 119 | 0.0 | 0.0 | 0.00 | 0.00 | 0.00 | 34 | 1012.6 |
| 20260902090904 | 97 | 119 | 0.0 | 0.0 | 0.00 | 0.00 | 0.00 | 34 | 1012.6 |
| 20260902090404 | 97 | 119 | 0.0 | 0.0 | 0.00 | 0.00 | 0.00 | 34 | 1012.6 |
| 20260902085404 | 97 | 119 | 0.0 | 0.0 | 0.00 | 0.00 | 0.00 | 34 | 1012.5 |
| 20260902084404 | 97 | 119 | 0.0 | 0.0 | 0.00 | 0.00 | 0.00 | 34 | 1012.5 |
| 20260902083904 | 97 | 119 | 0.0 | 0.0 | 0.00 | 0.00 | 0.00 | 34 | 1012.5 |
| 20260902083404 | 97 | 119 | 0.0 | 0.0 | 0.00 | 0.00 | 0.00 | 34 | 1012.5 |
| 20260902082905 | 97 | 119 | 0.0 | 0.0 | 0.00 | 0.00 | 0.00 | 34 | 1012.4 |
| 20260902082404 | 97 | 119 | 0.0 | 0.0 | 0.00 | 0.00 | 0.00 | 34 | 1012.5 |
| 20260902081905 | 97 | 119 | 0.0 | 0.0 | 0.00 | 0.00 | 0.00 | 34 | 1012.4 |
| 20260902081404 | 97 | 119 | 0.0 | 0.0 | 0.00 | 0.00 | 0.00 | 34 | 1012.4 |
| 20260902080904 | 97 | 119 | 0.0 | 0.0 | 0.00 | 0.00 | 0.00 | 34 | 1012.4 |
| 20260902075904 | 97 | 119 | 0.0 | 0.0 | 0.00 | 0.00 | 0.00 | 34 | 1012.5 |
| 20260902074904 | 97 | 119 | 0.0 | 0.0 | 0.00 | 0.00 | 0.00 | 34 | 1012.5 |
| 20260902074404 | 97 | 119 | 0.0 | 0.0 | 0.00 | 0.00 | 0.00 | 34 | 1012.5 |
| 20260902073905 | 97 | 119 | 0.0 | 0.0 | 0.00 | 0.00 | 0.00 | 34 | 1012.5 |
| 20260902073404 | 97 | 119 | 0.0 | 0.0 | 0.00 | 0.00 | 0.00 | 34 | 1012.5 |
| 20260902072904 | 97 | 119 | 0.0 | 0.0 | 0.00 | 0.00 | 0.00 | 34 | 1012.6 |
| 20260902072404 | 97 | 119 | 0.0 | 0.0 | 0.00 | 0.00 | 0.00 | 34 | 1012.6 |
| 20260902071904 | 97 | 119 | 0.0 | 1.0 | 0.00 | 0.00 | 0.00 | 34 | 1012.6 |
| 20260902071404 | 97 | 119 | 0.0 | 2.0 | 0.00 | 0.00 | 0.00 | 34 | 1012.6 |
| 20260902070904 | 97 | 119 | 1.0 | 2.0 | 0.00 | 0.00 | 0.00 | 34 | 1012.7 |
| 20260902065904 | 97 | 119 | 1.0 | 2.0 | 0.00 | 0.00 | 0.00 | 34 | 1012.7 |